Regional Weather Roundup
Issued by NWS Green Bay, WI

Home | Current Version | Previous Version | Text Only | Print | Product List | Glossary On
Versions: 1 2 3 4 5 6 7 8 9 10 11 12 13 14 15 16 17 18 19 20 21 22 23 24 25 26 27 28 29 30 31 32 33 34 35 36 37 38 39 40 41 42 43 44 45 46 47 48 49 50
000
ASUS43 KGRB 251159
RWRGRB

NORTH-CENTRAL AND NORTHEAST WISCONSIN REGIONAL WEATHER ROUNDUP
NATIONAL WEATHER SERVICE GREEN BAY WI
700 AM CDT SAT OCT 25 2014

WIZ005-009-010>012-018-019-251300-
NORTH CENTRAL WISCONSIN

CITY           SKY/WX    TMP DP  RH WIND       PRES   REMARKS
IRONWOOD       CLEAR     48  36  61 W16       29.79S
MANITOWISH WTR NOT AVBL
ARBOR VITAE    NOT AVBL
EAGLE RIVER    NOT AVBL
LAND O LAKES   NOT AVBL
RHINELANDER    CLEAR     45  38  76 W10       29.83R
PHILLIPS       NOT AVBL
ANTIGO         NOT AVBL
TOMAHAWK       NOT AVBL
MERRILL        NOT AVBL
$$

WIZ013-073-251300-
NORTHEAST WISCONSIN

CITY           SKY/WX    TMP DP  RH WIND       PRES   REMARKS
IRON MOUNTAIN  CLEAR     51  40  65 W12       29.74S
MARINETTE      CLEAR     52  46  82 W6        29.76F
$$

WIZ017-030-035>037-045-251300-
CENTRAL WISCONSIN

CITY           SKY/WX    TMP DP  RH WIND       PRES   REMARKS
MEDFORD        NOT AVBL
WAUSAU         CLEAR     48  45  89 W9        29.85R
MOSINEE        CLEAR     46  46 100 W7        29.88R
MARSHFIELD     CLEAR     48  42  80 W8        29.89R
WISC RAPIDS    CLEAR     49  44  83 NW7       29.89S
STEVENS POINT  NOT AVBL
WAUPACA        NOT AVBL
SHAWANO        NOT AVBL
CLINTONVILLE   NOT AVBL
$$

WIZ038-039-048-051-251300-
FOX VALLEY

CITY           SKY/WX    TMP DP  RH WIND       PRES   REMARKS
NWS GREEN BAY  CLEAR     53  51  93 W8        29.82S FOG
APPLETON       PTCLDY    50  48  93 W8        29.84S FOG
OSHKOSH        CLEAR     53  51  93 W6        29.85R FOG
FOND DU LAC    CLEAR     54  50  86 W10       29.87R
$$

WIZ022-050-052-251300-
EAST CENTRAL WISCONSIN

CITY           SKY/WX    TMP DP  RH WIND       PRES   REMARKS
STURGEON BAY   CLEAR     54  48  82 W10       29.79S
MANITOWOC      NOT AVBL
SHEBOYGAN      CLEAR     55  51  86 W10       29.85R
$$

LMZ563-521-522-541>543-251300-
LAKESHORE

STATION/POSITION TIME  TEMP    WIND        PRES    VSBY  WAVE
                       AIR SEA DIR/SP/G                  HT/PER
                 (UTC) (F)     (DEG/KT/KT) (MB)    (MI)  (FT/S)
SHEBOYGAN LKSHOR 1100   56 51  270/ 13/ 16 1010.3S
KEWAUNEE LKSHORE 1100   55     280/  7/ 11 1008.3R
NORTHPORT PIER   1100   55     270/  6/ 13 1007.5R
N MID LAKE BUOY  1100   54 51  260/ 17/ 19 1006.1F         4/ 5
SISTER BAY LKSHO 1100          250/ 12/ 14   N/A
CHAMBERS ISLAND  1100   53     210/  5/ 10 1008.1R
MENOMINEE LKSHOR 1100   54     240/  7/ 10 1008.6S
$$



USA.gov is the U.S. government's official web portal to all federal, state and local government web resources and services.